FW2187 Weather Reports


time (UTC)temp
F
wind
direction
speed
knots
gust
knots
rain 1hr
in
rain 24hr
in
rain mn
in
humidity
%
barometer
mb
20260507065016 50 279 0.0 2.6 0.02 0.22 0.02 95 1008.8
20260507064016 50 299 0.9 2.6 0.00 0.20 0.00 95 1008.5
20260507063016 50 298 0.9 1.7 0.00 0.20 0.00 95 1008.1
20260507062117 50 0.0 0.9 0.00 0.20 0.00 95 1008.1
20260507061016 50 300 0.0 3.5 0.00 0.20 0.00 95 1008.4
20260507060017 50 272 0.9 5.2 0.00 0.20 0.00 95 1008.7
20260507055016 50 82 0.0 1.7 0.00 0.20 0.00 95 1008.8
20260507054016 50 82 0.0 0.9 0.00 0.20 0.00 95 1009.0
20260507053016 51 82 0.0 1.7 0.00 0.20 0.00 95 1009.0
20260507052216 51 0.0 1.7 0.00 0.20 0.00 95 1009.0
20260507051016 51 86 0.9 1.7 0.00 0.20 0.00 96 1009.2
20260507050016 51 20 0.0 4.3 0.00 0.20 0.00 96 1009.4
20260507045116 52 81 0.9 3.5 0.00 0.20 0.00 96 1009.6
20260507044016 52 146 0.0 0.9 0.01 0.20 0.00 96 1009.4
20260507043017 52 146 0.0 2.6 0.01 0.20 0.00 96 1009.2
20260507042016 52 23 0.0 1.7 0.01 0.20 0.00 96 1009.3
20260507041016 52 11 0.9 1.7 0.01 0.20 0.00 96 1009.3
20260507040116 52 0.0 0.9 0.01 0.20 0.20 96 1009.4
20260507035016 52 10 0.9 1.7 0.01 0.20 0.20 96 1009.5
20260507034016 52 13 0.9 2.6 0.00 0.19 0.19 96 1009.4
20260507033015 53 13 0.9 3.5 0.00 0.19 0.19 96 1009.5
20260507032016 53 23 1.7 4.3 0.00 0.19 0.19 96 1009.5
20260507031016 55 360 1.7 4.3 0.00 0.19 0.19 96 1009.5
20260507030016 57 21 1.7 4.3 0.00 0.19 0.19 97 1009.5
20260507025015 58 132 0.9 3.5 0.00 0.19 0.19 97 1009.0
20260507024016 57 184 0.9 2.6 0.00 0.19 0.19 97 1008.8
20260507023015 57 182 0.9 3.5 0.00 0.19 0.19 97 1008.8
20260507022016 57 191 0.9 2.6 0.00 0.19 0.19 97 1008.9
20260507021016 57 193 0.9 2.6 0.00 0.19 0.19 97 1008.9
20260507020117 57 194 0.9 2.6 0.00 0.19 0.19 97 1008.9
20260507015015 58 193 1.7 3.5 0.00 0.19 0.19 97 1008.8
20260507014015 57 196 1.7 3.5 0.00 0.19 0.19 97 1008.7
20260507013015 57 195 1.7 3.5 0.00 0.19 0.19 97 1008.8
20260507012015 57 196 1.7 3.5 0.00 0.19 0.19 97 1008.5
20260507010016 57 209 1.7 5.2 0.00 0.19 0.19 97 1008.6
20260507005016 57 181 1.7 3.5 0.00 0.19 0.19 97 1008.5
20260507004015 57 185 1.7 2.6 0.00 0.19 0.19 97 1008.4
20260507003015 57 185 1.7 3.5 0.00 0.19 0.19 97 1008.6
20260507002016 57 182 0.9 2.6 0.00 0.19 0.19 97 1008.7
20260507001015 57 178 1.7 5.2 0.00 0.19 0.19 97 1008.7
20260507000015 57 181 1.7 3.5 0.00 0.19 0.19 97 1008.6
20260506235015 57 194 1.7 4.3 0.00 0.19 0.19 97 1008.6
20260506234115 57 191 1.7 3.5 0.00 0.19 0.19 96 1008.5
20260506233016 57 189 1.7 6.1 0.00 0.19 0.19 97 1008.4
20260506232216 57 163 1.7 6.1 0.00 0.19 0.19 97 1008.3
20260506231015 57 198 1.7 3.5 0.00 0.19 0.19 97 1008.2
20260506230015 57 198 1.7 2.6 0.01 0.19 0.19 96 1008.1
20260506225115 57 159 1.7 3.5 0.01 0.19 0.19 96 1008.1
20260506224116 57 172 1.7 4.3 0.01 0.19 0.19 96 1008.0
20260506223215 57 176 1.7 4.3 0.01 0.19 0.19 96 1007.9
20260506222015 57 174 2.6 4.3 0.01 0.19 0.19 96 1008.0
20260506221015 57 178 1.7 4.3 0.02 0.19 0.19 96 1008.0
20260506220015 57 198 1.7 3.5 0.01 0.18 0.18 96 1008.0
20260506215015 57 184 1.7 4.3 0.02 0.18 0.18 96 1008.0
20260506214015 57 179 1.7 4.3 0.04 0.18 0.18 96 1008.0
20260506213015 57 197 1.7 4.3 0.07 0.18 0.18 96 1008.1
20260506212016 57 153 1.7 7.0 0.07 0.18 0.18 96 1008.1
20260506211016 57 168 1.7 7.8 0.06 0.17 0.17 96 1008.3
20260506210015 57 185 1.7 5.2 0.06 0.17 0.17 95 1008.3
20260506205015 58 185 1.7 5.2 0.05 0.16 0.16 95 1008.5
20260506204116 58 182 1.7 6.1 0.03 0.14 0.14 95 1008.6
20260506203015 58 169 1.7 4.3 0.00 0.11 0.11 95 1008.7
20260506202016 58 174 1.7 6.1 0.00 0.11 0.11 95 1008.5
20260506201015 58 179 1.7 4.3 0.00 0.11 0.11 95 1008.6
20260506200115 58 167 1.7 7.8 0.00 0.11 0.11 95 1008.7
20260506195015 57 170 2.6 5.2 0.01 0.11 0.11 95 1008.9
20260506194015 57 216 1.7 4.3 0.02 0.11 0.11 95 1009.0
20260506193115 57 185 2.6 8.7 0.03 0.11 0.11 94 1009.0
20260506192015 57 189 1.7 5.2 0.03 0.11 0.11 94 1009.1
20260506191015 57 190 2.6 6.1 0.05 0.11 0.11 94 1009.2
20260506190015 57 180 1.7 6.1 0.06 0.11 0.11 93 1009.3
20260506185015 57 180 2.6 9.6 0.07 0.10 0.10 93 1009.4
20260506184015 58 177 2.6 6.1 0.08 0.09 0.09 92 1009.5
20260506183015 58 173 3.5 7.8 0.08 0.08 0.08 91 1009.3
20260506182015 58 178 2.6 5.2 0.08 0.08 0.08 91 1009.5
20260506181115 59 166 3.5 7.8 0.06 0.06 0.06 90 1009.6
20260506180015 60 178 1.7 7.0 0.05 0.05 0.05 88 1009.9
20260506175015 60 167 1.7 6.1 0.03 0.03 0.03 86 1010.2
20260506174015 61 164 0.9 3.5 0.01 0.01 0.01 85 1010.4
20260506173015 62 154 1.7 3.5 0.00 0.00 0.00 83 1010.5
20260506172015 62 181 2.6 7.8 0.00 0.00 0.00 81 1010.6
20260506171016 63 179 2.6 6.1 0.00 0.00 0.00 79 1010.8
20260506170014 64 185 2.6 12.2 0.00 0.00 0.00 77 1010.9
20260506165015 65 194 2.6 13.0 0.00 0.00 0.00 76 1010.8
20260506164015 65 199 2.6 7.8 0.00 0.00 0.00 76 1010.7
20260506163015 65 195 2.6 7.8 0.00 0.00 0.00 75 1010.7
20260506162015 66 201 3.5 8.7 0.00 0.00 0.00 73 1010.9
20260506161017 66 190 3.5 8.7 0.00 0.00 0.00 73 1011.1
20260506160015 66 189 3.5 9.6 0.00 0.00 0.00 72 1011.2
20260506155017 67 190 3.5 7.8 0.00 0.00 0.00 71 1011.2
20260506154018 67 199 3.5 9.6 0.00 0.00 0.00 71 1011.1
20260506153117 68 193 2.6 7.0 0.00 0.00 0.00 70 1011.1
20260506152218 68 196 2.6 6.1 0.00 0.00 0.00 71 1011.2
20260506151018 68 190 4.3 13.0 0.00 0.00 0.00 71 1011.3
20260506150017 68 194 3.5 9.6 0.00 0.00 0.00 71 1011.3
20260506145016 68 188 2.6 6.1 0.00 0.00 0.00 71 1011.4
20260506144016 68 198 2.6 13.9 0.00 0.00 0.00 71 1011.4
20260506143016 67 182 4.3 10.4 0.00 0.00 0.00 72 1011.3
20260506142017 66 198 3.5 8.7 0.00 0.00 0.00 74 1011.4
20260506141016 65 196 2.6 6.1 0.00 0.00 0.00 75 1011.5
20260506140116 65 193 3.5 10.4 0.00 0.00 0.00 76 1011.3
20260506135017 65 181 2.6 7.8 0.00 0.00 0.00 76 1011.2
20260506134117 64 208 2.6 6.1 0.00 0.00 0.00 78 1011.2
20260506133016 64 192 3.5 7.0 0.00 0.00 0.00 79 1011.2
20260506132016 63 188 3.5 7.8 0.00 0.00 0.00 80 1011.1
20260506131016 63 191 2.6 5.2 0.00 0.00 0.00 81 1011.4
20260506130016 62 179 2.6 7.8 0.00 0.00 0.00 83 1011.6
20260506125016 61 192 2.6 5.2 0.00 0.00 0.00 85 1011.8
20260506124016 60 194 3.5 7.8 0.00 0.00 0.00 86 1011.8
20260506123017 60 192 2.6 7.0 0.00 0.00 0.00 88 1011.8
20260506122016 59 198 2.6 9.6 0.00 0.00 0.00 88 1011.7
20260506121016 59 188 2.6 7.0 0.00 0.00 0.00 88 1011.8
20260506120017 58 177 2.6 7.0 0.00 0.00 0.00 89 1011.8
20260506115018 58 196 2.6 5.2 0.00 0.00 0.00 89 1011.7
20260506114016 58 187 2.6 6.1 0.00 0.00 0.00 90 1011.6
20260506113016 58 188 3.5 7.8 0.00 0.00 0.00 90 1011.8
20260506112017 57 183 2.6 7.0 0.00 0.00 0.00 91 1011.9
20260506111016 57 191 2.6 5.2 0.00 0.00 0.00 91 1012.1
20260506110016 57 187 2.6 5.2 0.00 0.00 0.00 91 1011.9
20260506105016 56 199 2.6 4.3 0.00 0.00 0.00 92 1011.9
20260506104116 56 190 2.6 7.0 0.00 0.00 0.00 92 1011.9
20260506103016 56 198 2.6 3.5 0.00 0.00 0.00 91 1011.8
20260506102016 56 188 2.6 5.2 0.00 0.00 0.00 91 1011.8
20260506101016 56 187 1.7 4.3 0.00 0.00 0.00 91 1011.8
20260506100016 56 199 2.6 4.3 0.00 0.00 0.00 90 1011.8
20260506095017 56 189 2.6 6.1 0.00 0.00 0.00 90 1011.8
20260506094016 56 204 2.6 5.2 0.00 0.00 0.00 90 1011.8
20260506093016 56 173 2.6 6.1 0.00 0.00 0.00 90 1011.9
20260506092017 56 188 2.6 4.3 0.00 0.00 0.00 90 1012.0
20260506091016 56 190 2.6 5.2 0.00 0.00 0.00 89 1011.9
20260506090016 56 183 2.6 5.2 0.00 0.00 0.00 89 1011.9
20260506085016 56 185 2.6 5.2 0.00 0.00 0.00 89 1012.1
20260506084016 57 197 2.6 6.1 0.00 0.00 0.00 89 1012.1
20260506083016 57 172 2.6 7.0 0.00 0.00 0.00 88 1012.0
20260506082417 57 192 2.6 4.3 0.00 0.00 0.00 88 1012.0
20260506081016 57 174 2.6 4.3 0.00 0.00 0.00 88 1012.1
20260506073016 57 183 2.6 5.2 0.00 0.00 0.00 86 1012.3
20260506072016 57 191 2.6 7.8 0.00 0.00 0.00 86 1012.4
20260506071016 58 187 2.6 6.1 0.00 0.00 0.00 85 1012.3
20260506070117 58 194 2.6 6.1 0.00 0.00 0.00 85 1012.2